| DS18B20 | SHTC3 | ||||||
|---|---|---|---|---|---|---|---|
| ID | Date d/m/Y & Time | data1 สูง | data2 ต่ำ | data3 นอก | temp pcb | hum pcb | Time |
| 8169 | 02/04/2026 17:04:50 | 31.1  | 30.9  | 30.0  | 31.1  | 68.3  | 17:04 |
| 8168 | 02/04/2026 17:00:08 | 31.4  | 31.3  | 30.4  | 31.4  | 70.5  | 17:00 |
| 8167 | 02/04/2026 16:55:26 | 31.4  | 31.4  | 30.5  | 31.4  | 70.5  | 16:55 |
| 8166 | 02/04/2026 16:50:44 | 31.4  | 31.4  | 30.5  | 31.3  | 70.5  | 16:50 |
| 8165 | 02/04/2026 16:46:02 | 31.4  | 31.4  | 30.8  | 31.5  | 70.5  | 16:46 |
| 8164 | 02/04/2026 16:41:20 | 31.5  | 31.4  | 30.7  | 31.6  | 70.4  | 16:41 |
| 8163 | 02/04/2026 16:36:38 | 31.5  | 31.5  | 30.7  | 31.4  | 70.3  | 16:36 |
| 8162 | 02/04/2026 16:31:56 | 31.6  | 31.5  | 30.7  | 31.6  | 70.2  | 16:31 |
| 8161 | 02/04/2026 16:27:14 | 31.6  | 31.5  | 31.1  | 31.6  | 70.0  | 16:27 |
| 8160 | 02/04/2026 16:22:32 | 31.6  | 31.5  | 30.8  | 31.6  | 69.9  | 16:22 |
| 8159 | 02/04/2026 16:17:50 | 31.7  | 31.5  | 31.1  | 31.5  | 69.9  | 16:17 |
| 8158 | 02/04/2026 16:13:08 | 31.8  | 31.6  | 31.4  | 31.6  | 69.9  | 16:13 |
| 8157 | 02/04/2026 16:08:26 | 31.8  | 31.6  | 31.1  | 31.5  | 69.7  | 16:08 |
| 8156 | 02/04/2026 16:03:44 | 31.8  | 31.6  | 31.0  | 31.7  | 69.6  | 16:03 |
| 8155 | 02/04/2026 15:59:02 | 31.9  | 31.6  | 31.3  | 31.6  | 69.4  | 15:59 |
| 8154 | 02/04/2026 15:54:19 | 31.9  | 31.6  | 31.4  | 31.7  | 69.3  | 15:54 |
| 8153 | 02/04/2026 15:49:37 | 32.0  | 31.6  | 31.3  | 31.6  | 69.2  | 15:49 |
| 8152 | 02/04/2026 15:44:55 | 32.1  | 31.6  | 31.6  | 31.7  | 69.2  | 15:44 |
| 8151 | 02/04/2026 15:40:13 | 32.1  | 31.6  | 31.4  | 31.7  | 69.1  | 15:40 |
| 8150 | 02/04/2026 15:35:31 | 32.2  | 31.6  | 31.6  | 31.7  | 69.3  | 15:35 |
| 8149 | 02/04/2026 15:30:49 | 32.2  | 31.6  | 31.9  | 31.9  | 69.2  | 15:30 |
| 8148 | 02/04/2026 15:26:08 | 32.4  | 31.6  | 31.9  | 32.0  | 69.0  | 15:26 |
| 8147 | 02/04/2026 15:21:27 | 32.4  | 31.7  | 32.0  | 31.8  | 68.9  | 15:21 |
| 8146 | 02/04/2026 15:16:45 | 32.5  | 31.7  | 31.9  | 31.9  | 68.7  | 15:16 |